Terug naar catalogus

SL-12 DEB

LostHEO
NORAD 41691·DEBRIS·🇷🇺 Russia

Gelanceerd Oct 26, 2007 vanaf Baikonur Cosmodrome

Loading…

Volgende Passages (komende 24 uur)

TLE

VerouderdSource: Space-Track

Epoch: May 24, 2021, 00:48 UTC

1 41691U 07052Y   21144.03346622  .00004744  00000-0  21171-2 0  9996
2 41691  64.3530 158.3895 5705256 344.8474   3.4769  4.42731121102262

Volg SL-12 DEB in realtime met AllMySat

Download on the App Store